Time,TemperatureF,DewpointF,PressureIn,WindDirection,WindDirectionDegrees,WindSpeedMPH,WindSpeedGustMPH,Humidity,HourlyPrecipIn,Conditions,Clouds,dailyrainin,SolarRadiationWatts/m^2,SoftwareType,DateUTC
2013-11-14 00:00:00,45.1,40.9,30.14,WNW,293,15.0,15.0,85,0.00,,,0.00,0,Wunderground v.1.15,2013-11-14 00:00:00,
2013-11-14 00:30:00,44.8,40.9,30.15,West,274,16.0,20.0,86,0.00,,,0.00,0,Wunderground v.1.15,2013-11-14 00:30:00,
2013-11-14 01:00:00,44.3,39.8,30.16,WNW,289,15.0,16.0,84,0.00,,,0.00,0,Wunderground v.1.15,2013-11-14 01:00:00,
2013-11-14 01:30:00,44.1,40.2,30.17,WNW,300,17.0,20.0,86,0.00,,,0.00,0,Wunderground v.1.15,2013-11-14 01:30:00,
2013-11-14 02:00:00,43.7,39.8,30.19,NW,318,14.0,14.0,86,0.00,,,0.00,0,Wunderground v.1.15,2013-11-14 02:00:00,
2013-11-14 02:30:00,43.4,40.4,30.20,NW,321,15.0,19.0,89,0.00,,,0.01,0,Wunderground v.1.15,2013-11-14 02:30:00,
2013-11-14 03:00:00,42.9,40.2,30.21,WNW,288,13.0,13.0,90,0.00,,,0.01,0,Wunderground v.1.15,2013-11-14 03:00:00,
2013-11-14 03:30:00,42.6,40.2,30.22,WNW,298,11.0,11.0,91,0.00,,,0.01,0,Wunderground v.1.15,2013-11-14 03:30:00,
2013-11-14 04:00:00,42.6,40.2,30.23,WNW,300,10.0,12.0,91,0.00,,,0.01,0,Wunderground v.1.15,2013-11-14 04:00:00,
2013-11-14 04:30:00,42.4,39.7,30.23,NW,307,13.0,13.0,90,0.00,,,0.02,0,Wunderground v.1.15,2013-11-14 04:30:00,
2013-11-14 05:00:00,41.9,39.2,30.24,WNW,286,13.0,15.0,90,0.00,,,0.02,0,Wunderground v.1.15,2013-11-14 05:00:00,
2013-11-14 05:30:00,42.0,38.7,30.25,WNW,288,13.0,13.0,88,0.00,,,0.02,0,Wunderground v.1.15,2013-11-14 05:30:00,
2013-11-14 06:00:00,41.7,38.4,30.27,NW,313,13.0,13.0,88,0.00,,,0.02,0,Wunderground v.1.15,2013-11-14 06:00:00,
2013-11-14 06:30:00,41.3,38.0,30.27,WNW,303,13.0,14.0,88,0.00,,,0.02,0,Wunderground v.1.15,2013-11-14 06:30:00,
2013-11-14 07:00:00,41.3,38.0,30.29,WNW,291,15.0,15.0,88,0.00,,,0.02,0,Wunderground v.1.15,2013-11-14 07:00:00,
2013-11-14 07:30:00,40.9,37.6,30.30,NW,321,12.0,12.0,88,0.00,,,0.02,0,Wunderground v.1.15,2013-11-14 07:30:00,
2013-11-14 08:00:00,40.9,37.6,30.31,NW,321,13.0,13.0,88,0.00,,,0.02,7,Wunderground v.1.15,2013-11-14 08:00:00,
2013-11-14 08:30:00,40.7,37.1,30.32,WNW,302,10.0,13.0,87,0.00,,,0.02,23,Wunderground v.1.15,2013-11-14 08:30:00,
2013-11-14 09:00:00,41.1,37.2,30.34,NW,313,10.0,10.0,86,0.00,,,0.02,33,Wunderground v.1.15,2013-11-14 09:00:00,
2013-11-14 09:30:00,41.8,37.6,30.35,WNW,298,10.0,12.0,85,0.00,,,0.02,46,Wunderground v.1.15,2013-11-14 09:30:00,
2013-11-14 10:00:00,43.0,37.9,30.37,NW,313,10.0,19.0,82,0.00,,,0.02,51,Wunderground v.1.15,2013-11-14 10:00:00,
2013-11-14 10:30:00,44.3,38.8,30.37,WNW,296,9.0,14.0,81,0.00,,,0.02,54,Wunderground v.1.15,2013-11-14 10:30:00,
2013-11-14 11:00:00,45.3,39.5,30.38,NW,313,14.0,19.0,80,0.00,,,0.02,70,Wunderground v.1.15,2013-11-14 11:00:00,
2013-11-14 11:30:00,46.3,39.8,30.39,North,355,13.0,18.0,78,0.00,,,0.02,232,Wunderground v.1.15,2013-11-14 11:30:00,
2013-11-14 12:00:00,46.9,39.0,30.41,North,355,14.0,22.0,74,0.00,,,0.02,54,Wunderground v.1.15,2013-11-14 12:00:00,
2013-11-14 12:30:00,46.7,39.5,30.42,NW,323,15.0,15.0,76,0.00,,,0.02,114,Wunderground v.1.15,2013-11-14 12:30:00,
2013-11-14 13:00:00,47.1,39.6,30.43,NNW,329,16.0,16.0,75,0.00,,,0.02,137,Wunderground v.1.15,2013-11-14 13:00:00,
2013-11-14 13:30:00,47.0,39.8,30.44,NNW,346,11.0,11.0,76,0.00,,,0.02,125,Wunderground v.1.15,2013-11-14 13:30:00,
2013-11-14 14:00:00,48.1,39.9,30.44,NNW,331,14.0,14.0,73,0.00,,,0.02,209,Wunderground v.1.15,2013-11-14 14:00:00,
2013-11-14 14:30:00,47.4,38.8,30.43,NNW,340,16.0,16.0,72,0.00,,,0.02,95,Wunderground v.1.15,2013-11-14 14:30:00,
2013-11-14 15:00:00,47.0,39.5,30.45,NW,326,10.0,10.0,75,0.00,,,0.02,47,Wunderground v.1.15,2013-11-14 15:00:00,
2013-11-14 15:30:00,46.7,39.5,30.47,NW,325,8.0,8.0,76,0.00,,,0.02,35,Wunderground v.1.15,2013-11-14 15:30:00,
2013-11-14 16:00:00,46.3,40.1,30.47,NNW,343,10.0,10.0,79,0.00,,,0.02,9,Wunderground v.1.15,2013-11-14 16:00:00,
2013-11-14 16:30:00,45.8,40.0,30.48,NNW,342,12.0,17.0,80,0.00,,,0.02,0,Wunderground v.1.15,2013-11-14 16:30:00,
2013-11-14 17:00:00,46.0,39.9,30.51,NW,322,9.0,9.0,79,0.00,,,0.02,0,Wunderground v.1.15,2013-11-14 17:00:00,
2013-11-14 17:30:00,45.5,39.4,30.51,NW,315,11.0,11.0,79,0.00,,,0.02,0,Wunderground v.1.15,2013-11-14 17:30:00,
2013-11-14 18:00:00,45.7,38.9,30.52,NNW,338,9.0,9.0,77,0.00,,,0.02,0,Wunderground v.1.15,2013-11-14 18:00:00,
2013-11-14 18:30:00,45.4,39.3,30.54,NW,308,7.0,7.0,79,0.00,,,0.02,0,Wunderground v.1.15,2013-11-14 18:30:00,
2013-11-14 19:00:00,44.8,39.6,30.53,NNW,332,11.0,14.0,82,0.00,,,0.02,0,Wunderground v.1.15,2013-11-14 19:00:00,
2013-11-14 19:30:00,44.1,39.6,30.54,WNW,302,6.0,7.0,84,0.00,,,0.02,0,Wunderground v.1.15,2013-11-14 19:30:00,
2013-11-14 20:00:00,44.2,39.7,30.54,NW,314,8.0,8.0,84,0.00,,,0.02,0,Wunderground v.1.15,2013-11-14 20:00:00,
2013-11-14 20:30:00,44.3,39.5,30.54,NNW,329,7.0,9.0,83,0.00,,,0.02,0,Wunderground v.1.15,2013-11-14 20:30:00,
2013-11-14 21:00:00,44.0,39.5,30.56,NW,313,7.0,7.0,84,0.00,,,0.02,0,Wunderground v.1.15,2013-11-14 21:00:00,
2013-11-14 21:30:00,43.9,39.1,30.57,WNW,284,4.0,4.0,83,0.00,,,0.02,0,Wunderground v.1.15,2013-11-14 21:30:00,
2013-11-14 22:00:00,44.0,38.9,30.58,WNW,296,4.0,4.0,82,0.00,,,0.02,0,Wunderground v.1.15,2013-11-14 22:00:00,
2013-11-14 22:30:00,43.6,38.8,30.58,NW,309,5.0,5.0,83,0.00,,,0.02,0,Wunderground v.1.15,2013-11-14 22:30:00,
2013-11-14 23:00:00,43.8,39.0,30.58,NW,306,2.0,2.0,83,0.00,,,0.02,0,Wunderground v.1.15,2013-11-14 23:00:00,
2013-11-14 23:30:00,43.0,38.8,30.59,NW,306,5.0,5.0,85,0.00,,,0.02,0,Wunderground v.1.15,2013-11-14 23:30:00,